YU7IBS-1 Weather Reports


time (UTC)temp
C
wind
direction
speed
KPH
gust
KPH
rain 1hr
cm
rain 24hr
cm
rain mn
cm
humidity
%
barometer
mb
20260506072743 20 0 3.2 6.4 0.00 0.00 0.00 39 997.6
20260506061243 18 0 3.2 4.8 0.00 0.00 0.00 48 997.3
20260506051243 17 0 1.6 3.2 0.00 0.00 0.00 57 997.3
20260506044243 16 0 1.6 1.6 0.00 0.00 0.00 62 997.3
20260506042742 16 0 1.6 1.6 0.00 0.00 0.00 61 997.7
20260506041243 16 0 0.0 0.0 0.00 0.00 0.00 56 997.3
20260506035742 16 0 0.0 0.0 0.00 0.00 0.00 57 997.4
20260506034244 15 0 0.0 0.0 0.00 0.00 0.00 57 996.9
20260506032744 15 0 0.0 0.0 0.00 0.00 0.00 54 996.5
20260506031243 15 0 0.0 0.0 0.00 0.00 0.00 56 996.5
20260506025742 15 0 0.0 0.0 0.00 0.00 0.00 53 996.5
20260506024242 15 0 1.6 1.6 0.00 0.00 0.00 56 996.5
20260506022742 15 0 0.0 0.0 0.00 0.00 0.00 55 996.5
20260506021242 15 0 0.0 0.0 0.00 0.00 0.00 58 996.5
20260506015742 15 0 0.0 0.0 0.00 0.00 0.00 58 996.5
20260506014242 15 0 0.0 0.0 0.00 0.00 0.00 62 996.5
20260506012742 15 0 0.0 0.0 0.00 0.00 0.00 60 996.5
20260506011242 15 0 0.0 0.0 0.00 0.00 0.00 62 996.5
20260506005741 15 0 0.0 0.0 0.00 0.00 0.00 60 996.5
20260506004241 15 0 1.6 3.2 0.00 0.00 0.00 63 996.5
20260506002742 15 0 1.6 3.2 0.00 0.00 0.00 61 996.5
20260506001241 16 0 1.6 1.6 0.00 0.00 0.00 64 996.3
20260505235741 16 0 1.6 3.2 0.00 0.00 0.00 62 996.4
20260505234240 16 0 1.6 3.2 0.00 0.00 0.00 65 996.5
20260505232740 16 0 1.6 3.2 0.00 0.00 0.00 63 996.5
20260505231241 16 0 1.6 3.2 0.00 0.00 0.00 66 996.5
20260505224240 16 0 1.6 1.6 0.00 0.00 0.00 67 996.5
20260505222741 17 0 1.6 1.6 0.00 0.00 0.00 65 996.5
20260505221241 17 0 3.2 4.8 0.00 0.00 0.00 67 996.5
20260505162738 24 0 0.0 0.0 0.00 0.00 0.00 34 994.7
20260505161237 26 0 0.0 0.0 0.00 0.00 0.00 32 994.3
20260505152736 26 0 0.0 0.0 0.00 0.00 0.00 31 994.7
20260505151236 26 0 0.0 0.0 0.00 0.00 0.00 31 994.3
20260505124236 26 0 0.0 0.0 0.00 0.00 0.00 32 996.3
20260505122734 26 0 0.0 0.0 0.00 0.00 0.00 33 996.7
20260505121235 26 0 0.0 0.0 0.00 0.00 0.00 33 996.3
20260505115734 26 0 4.8 9.7 0.00 0.00 0.00 33 996.7
20260505114234 25 0 1.6 1.6 0.00 0.00 0.00 34 996.3
20260505112734 25 0 6.4 9.7 0.00 0.00 0.00 33 996.8
20260505111234 25 0 1.6 3.2 0.00 0.00 0.00 31 997.0
20260505101234 25 0 1.6 1.6 0.00 0.00 0.00 31 997.5
20260505095733 25 0 0.0 0.0 0.00 0.00 0.00 29 997.5
20260505094233 25 0 0.0 0.0 0.00 0.00 0.00 31 997.6
20260505092733 25 0 0.0 0.0 0.00 0.00 0.00 32 998.0
20260505080913 21 0 0.0 0.0 0.00 0.00 0.00 36 998.5
20260505075412 21 0 0.0 0.0 0.00 0.00 0.00 38 998.5
20260505073912 20 0 0.0 0.0 0.00 0.00 0.00 39 998.5